This is the latest recevied weather packets stored in our database for station/object KN4DS-3. If no packets are shown the sender has not sent any weather packets the latest 10 day(s).
| Time | Temp. | Humidity | Pressure | Rain* | Wind** | Luminosity | Snow |
|---|---|---|---|---|---|---|---|
| 1778012404 | 28.33° C | 38% | 1014.6 hPa | 0 mm | - | - | - |
| 1778012104 | 28.33° C | 38% | 1014.7 hPa | 0 mm | - | - | - |
| 1778011805 | 28.89° C | 39% | 1014.8 hPa | 0 mm | - | - | - |
| 1778011504 | 28.89° C | 38% | 1014.7 hPa | 0 mm | - | - | - |
| 1778011204 | 29.44° C | 40% | 1014.7 hPa | 0 mm | - | - | - |
| 1778010904 | 28.89° C | 38% | 1015 hPa | 0 mm | - | - | - |
| 1778010604 | 28.89° C | 37% | 1015.1 hPa | 0 mm | - | - | - |
| 1778010304 | 28.89° C | 38% | 1015.1 hPa | 0 mm | - | - | - |
| 1778010005 | 28.89° C | 39% | 1015.1 hPa | 0 mm | - | - | - |
| 1778009704 | 28.89° C | 38% | 1015.2 hPa | 0 mm | - | - | - |
| 1778009404 | 28.89° C | 38% | 1015.1 hPa | 0 mm | - | - | - |
| 1778009104 | 28.89° C | 37% | 1015.2 hPa | 0 mm | - | - | - |
| 1778008805 | 28.89° C | 38% | 1015.2 hPa | 0 mm | - | - | - |
| 1778008504 | 28.89° C | 39% | 1015.2 hPa | 0 mm | - | - | - |
| 1778008205 | 28.89° C | 40% | 1015.4 hPa | 0 mm | - | - | - |
| 1778007904 | 28.89° C | 40% | 1015.4 hPa | 0 mm | - | - | - |
| 1778007604 | 28.33° C | 39% | 1015.5 hPa | 0 mm | - | - | - |
| 1778007304 | 28.89° C | 38% | 1015.7 hPa | 0 mm | - | - | - |
| 1778007004 | 28.33° C | 37% | 1015.9 hPa | 0 mm | - | - | - |
| 1778006704 | 28.89° C | 37% | 1016.1 hPa | 0 mm | - | - | - |
| 1778006405 | 28.33° C | 37% | 1016.1 hPa | 0 mm | - | - | - |
| 1778006105 | 28.89° C | 36% | 1016.4 hPa | 0 mm | - | - | - |
| 1778005805 | 28.33° C | 37% | 1016.3 hPa | 0 mm | - | - | - |
| 1778005504 | 28.33° C | 38% | 1016.4 hPa | 0 mm | - | - | - |
| 1778005205 | 27.78° C | 40% | 1016.4 hPa | 0 mm | - | - | - |
* Rain latest hour (hover to see other rain measurements)
** Current wind speed in m/s (hover to see current wind gust speed)